SCP
0 0 0 0 0 0 0 0 -0 0 0 0 0 0 0 0 0 0 0 0 0 0 0 0 0 0 -0 -0 -0 -0 -0 -0 -0 -0 -0 -0 -0 -0 -0 -0 -0 0 0
0 0 0 0 0 0 0 0 -0 0 0 0 0 0 0 0 0 0 0 0 0 0 0 0 0 0 -0 -0 -0 -0 -0 -0 -0 -0 -0 -0 -0 -0 -0 -0 -0 0 0
0 0 0 0 -0 -0 -0 -0 0 0 0 0 0 0 0 0 0 0 0 0 0 0 0 0 0 0 -0 -0 -0 -0 -0 -0 -0 -0 -0 -0 -0 -0 -0 0 0 0 0
0 0 0 0 -0 -0 -0 -0 0 0 0 0 0 0 0 0 0 0 0 0 0 0 0 0 0 -0 -0 -0 -0 -0 -0 -0 -0 -0 -0 -0 -0 -0 -0 0 0 0 0
0 0 0 0 -0 -0 -0 0 0 0 0 0 0 0 0 0 0 0 0 0 0 0 0 0 0 -0 -0 -0 -0 -0 -0 -0 -0 -0 -0 -0 -0 -0 -0 0 0 0 0
0 0 0 0 -0 -0 -0 0 0 0 0 0 0 0 0 0 0 0 0 0 0 0 0 0 0 -0 -0 -0 -0 -0 -0 -0 -0 -0 -0 -0 -0 -0 -0 0 0 0 0
0 0 0 0 -0 -0 -0 0 0 0 0 0 0 0 0 0 0 0 0 0 0 0 0 0 0 -0 -0 -0 -0 -0 -0 -0 -0 -0 -0 -0 -0 -0 -0 0 0 0 0
0 0 0 0 0 -0 -0 0 0 0 0 0 0 0 0 0 0 0 0 0 0 0 0 0 0 0 -0 -0 -0 -0 -0 -0 -0 -0 -0 -0 -0 0 0 0 0 0 0
0 0 0 0 0 0 0 0 0 0 0 0 0 0 0 0 0 0 0 0 0 0 0 0 0 0 -0 -0 -0 -0 -0 -0 -0 -0 -0 0 0 0 0 0 0 0 0
0 0 0 0 0 0 0 0 0 0 0 0 0 0 0 0 0 0 0 0 0 0 0 0 0 0 -0 -0 -0 -0 -0 -0 -0 0 0 0 0 0 0 0 0 0 0
0 0 0 0 0 0 0 0 0 0 0 0 0 0 0 0 0 0 0 0 0 0 0 0 0 0 0 -0 -0 -0 0 0 0 0 0 0 0 0 0 0 0 0 0
0 0 0 0 0 0 0 0 0 0 0 0 0 0 0 0 0 0 0 0 0 0 0 0 0 0 0 -0 -0 0 0 0 0 0 0 0 0 0 0 0 0 0 0
0 0 0 0 0 0 0 0 0 0 0 0 0 0 0 0 0 0 0 0 0 0 0 0 0 0 0 0 0 0 0 0 0 0 0 0 0 0 0 0 0 0 0
0 0 0 0 0 0 0 0 0 0 0 0 0 0 0 0 0 0 0 0 0 0 0 0 0 0 0 0 0 0 0 0 0 0 0 0 0 0 0 0 0 0 0
0 0 0 0 0 0 0 0 0 0 0 0 0 0 0 0 0 0 0 0 0 0 0 0 0 0 0 0 0 0 0 0 0 0 0 0 0 0 0 0 0 0 0
0 0 0 0 0 0 0 0 0 0 0 0 0 0 0 0 0 0 0 0 0 0 0 0 0 0 0 0 0 0 0 0 0 0 0 0 0 0 0 0 0 0 0
0 0 0 0 0 0 0 0 0 0 0 0 0 0 0 0 0 0 0 0 0 0 0 0 0 0 0 0 0 0 0 0 0 0 0 0 0 0 0 0 0 0 0
0 0 0 0 0 0 0 0 0 0 0 0 0 0 0 0 0 0 0 0 0 0 0 0 0 0 0 0 0 0 0 0 0 0 0 0 0 0 0 0 0 0 0
0 0 0 0 0 0 0 0 0 0 0 0 0 0 0 0 0 0 0 0 0 0 0 0 0 0 0 0 0 0 0 0 0 0 0 0 0 0 0 0 0 0 0
0 0 0 0 0 0 0 0 0 0 0 0 0 0 0 0 0 0 0 0 0 0 0 0 0 0 0 0 0 0 0 0 0 0 0 0 0 0 0 0 0 0 0
0 0 0 0 0 0 0 0 0 0 0 0 0 0 0 0 0 0 0 0 0 0 0 0 0 0 0 0 0 0 0 0 0 0 0 0 0 0 0 0 0 0 0
0 0 0 0 0 0 0 0 0 0 0 0 0 0 0 0 0 0 0 0 0 0 0 0 0 0 0 0 0 0 0 0 0 0 0 0 0 0 0 0 0 0 0
0 0 0 0 0 0 0 0 0 0 0 0 0 0 0 0 0 0 0 0 0 0 0 0 0 0 0 0 0 0 0 0 0 0 0 0 0 0 0 0 0 0 0
0 0 0 0 0 0 0 -0 0 0 0 0 0 0 0 0 0 0 0 0 0 0 0 0 0 0 0 0 0 0 0 0 0 0 0 0 0 0 0 0 0 0 0
0 0 0 0 0 0 0 -0 -0 -0 0 0 0 0 0 0 0 0 0 0 0 0 0 0 0 0 0 0 0 0 0 0 0 0 0 0 0 0 0 0 0 0 0
0 0 0 0 0 0 0 -0 -0 -0 -0 0 0 0 0 0 0 0 0 0 0 0 0 0 0 0 0 0 0 0 0 0 0 0 0 0 0 0 0 0 0 0 0
Wind_Speed
2 2 2 2 3 3 3 4 4 5 5 6 6 6 6 6 6 5 5 12 13 12 12 12 11 11 12 12 13 13 13 14 13 13 13 12 12 12 11 11 10 10 10
2 2 2 3 2 3 3 3 4 5 4 5 6 6 6 5 6 6 5 8 13 14 14 13 12 12 12 13 14 14 14 14 14 14 14 13 13 13 12 12 12 11 11
3 3 2 2 2 3 4 4 5 4 5 5 5 5 5 5 5 6 6 5 6 12 15 15 14 14 14 14 14 14 14 14 14 14 14 14 14 14 14 14 13 13 13
3 3 3 2 3 3 3 4 4 4 4 4 4 4 4 4 6 6 6 6 6 6 10 15 15 15 15 14 14 14 14 14 14 14 14 14 14 14 15 15 15 14 13
3 3 3 2 3 3 3 4 3 3 4 4 4 5 4 4 4 6 6 6 6 6 6 10 15 16 15 15 14 14 14 14 14 14 14 15 15 15 15 15 15 15 14
3 3 3 3 3 4 3 4 4 4 4 4 5 5 4 4 4 5 5 5 5 6 6 7 7 9 14 15 14 14 14 14 14 14 15 15 16 16 16 15 16 15 15
3 4 3 3 3 3 4 4 4 5 3 3 4 4 4 5 5 4 4 4 5 5 6 6 5 5 6 13 14 14 14 14 15 15 15 16 16 15 15 16 16 16 15
3 3 4 3 3 4 4 4 4 3 2 2 3 3 2 3 4 5 4 4 4 4 5 6 6 6 5 4 9 14 14 14 14 14 15 15 16 15 16 16 16 16 15
2 3 4 4 4 3 4 3 4 4 2 1 1 3 3 2 1 3 4 4 4 4 4 4 5 6 6 5 5 10 14 13 13 14 14 15 15 16 16 16 16 15 15
3 3 3 4 4 3 4 3 3 3 3 2 1 1 2 3 3 1 2 3 4 4 4 4 4 5 5 4 6 11 13 13 13 14 14 14 15 15 15 16 16 15 15
2 3 3 3 3 3 3 3 3 3 2 3 2 2 2 2 2 3 1 1 3 3 3 3 3 3 4 4 4 8 12 12 13 14 14 14 14 15 15 16 16 16 15
1 2 3 3 3 3 3 3 3 3 2 2 2 2 3 3 3 3 3 1 1 2 2 2 3 3 3 3 5 9 11 12 13 13 14 14 14 15 15 16 17 16 16
1 2 3 3 3 3 3 3 3 3 3 3 3 2 2 2 3 4 4 2 1 1 2 2 2 2 2 3 3 8 10 11 11 12 13 14 14 14 15 16 17 17 17
3 3 3 3 3 3 3 3 2 2 2 2 3 2 2 2 3 4 4 4 3 1 1 1 1 2 2 2 4 6 5 10 11 11 12 13 13 14 15 15 16 17 17
3 4 4 4 3 3 4 4 2 2 2 2 2 3 2 2 2 2 3 4 5 3 1 1 0 1 1 2 3 3 3 8 10 10 11 12 12 13 14 14 15 15 15
3 4 4 4 3 3 4 3 3 3 3 2 2 3 2 2 2 2 2 2 3 4 2 1 1 0 1 2 4 3 4 7 9 9 10 11 11 12 12 13 13 13 14
3 4 4 4 4 3 4 4 3 3 4 3 2 3 2 3 3 2 2 3 2 3 4 1 1 1 2 2 2 2 3 3 3 8 9 10 10 11 11 11 12 12 13
3 4 4 4 4 4 4 4 4 4 4 4 3 3 3 3 3 2 3 3 3 3 4 4 1 1 2 2 2 2 2 3 2 6 8 8 9 9 10 10 10 10 11
3 3 4 4 4 4 4 4 4 4 4 4 4 4 4 4 3 2 3 3 3 3 3 4 2 1 1 2 2 2 2 2 2 3 5 6 7 7 8 8 9 9 9
4 4 4 4 4 4 3 4 4 4 4 3 3 4 4 5 4 4 3 4 4 4 4 4 3 2 1 1 2 2 1 1 2 2 3 3 5 6 6 7 7 7 8
4 4 4 3 3 3 3 4 5 4 4 3 3 3 3 5 6 5 4 4 5 4 4 3 3 2 1 2 2 2 2 1 1 1 1 2 2 2 3 4 5 6 6
4 4 4 4 4 3 5 7 6 4 4 4 3 2 2 3 4 5 6 7 8 6 6 4 3 3 3 3 2 3 2 1 0 0 1 1 1 1 1 1 3 4 4
4 4 4 4 4 3 6 8 8 5 4 4 4 3 2 3 3 3 4 5 5 6 8 6 5 5 5 5 5 3 3 2 2 1 2 0 1 1 1 2 3 3 3
4 4 4 4 4 4 6 8 8 5 4 3 3 3 3 3 3 4 4 3 2 2 3 4 5 5 4 5 5 4 4 3 1 1 1 1 0 1 1 2 3 3 3
4 4 4 4 4 4 6 8 8 4 3 3 3 3 4 3 6 7 5 4 2 0 1 3 3 3 4 7 7 5 4 3 1 1 1 2 1 0 1 1 2 3 3
4 4 4 4 5 4 6 8 9 4 4 2 2 2 5 5 7 8 5 5 4 2 1 2 2 3 2 4 6 4 5 3 2 2 2 2 2 1 0 1 1 1 1
Wind_Direction
87 72 71 69 67 70 76 79 81 78 75 70 70 67 58 50 44 39 27 44 51 54 57 59 59 57 57 55 55 52 50 47 44 42 40 38 37 34 32 29 27 27 29
104 89 79 77 71 75 79 86 89 86 79 74 68 63 57 51 46 44 37 36 45 50 52 54 56 57 58 58 56 54 51 48 45 43 41 38 35 34 34 33 32 33 34
117 114 105 94 89 90 92 90 83 80 81 74 65 60 58 54 51 46 43 38 35 43 48 50 51 55 58 57 56 54 51 47 45 43 41 40 38 37 36 36 37 39 40
128 122 117 107 103 95 96 98 91 84 76 73 65 54 50 48 49 50 50 46 41 37 40 47 50 52 54 55 54 53 50 48 45 45 43 42 40 41 39 37 39 40 42
129 126 119 115 112 100 96 106 89 95 93 84 74 59 48 46 42 51 51 48 45 43 38 40 44 46 47 49 50 50 50 48 47 46 46 44 43 42 41 40 40 41 43
131 126 119 118 115 108 99 103 100 87 93 94 83 66 50 46 45 43 43 46 44 44 42 40 35 35 41 44 46 47 48 47 47 48 48 47 44 42 41 42 42 42 43
135 133 131 121 118 119 126 123 111 100 90 98 89 66 44 45 48 40 38 46 44 41 43 40 36 32 30 36 39 42 43 46 47 48 48 47 45 43 42 43 43 43 44
139 141 135 131 126 122 124 128 124 114 105 94 110 102 56 25 26 33 34 45 39 37 44 42 37 34 30 25 29 37 38 41 45 48 49 48 46 44 45 45 45 46 46
132 131 139 135 134 135 146 149 140 134 137 86 87 131 135 158 22 16 30 38 35 39 35 34 37 32 31 26 19 29 36 37 43 47 49 48 47 46 47 47 47 47 48
121 123 129 136 140 142 148 155 142 138 138 144 80 67 118 143 137 80 16 23 34 39 32 34 30 30 27 24 31 37 39 38 42 46 47 48 49 48 48 48 47 47 50
105 121 129 136 143 148 150 143 135 141 146 153 153 135 102 83 103 130 123 17 29 26 30 29 29 26 23 22 27 41 42 41 43 44 45 47 48 48 48 47 46 47 52
101 124 136 144 150 151 156 157 152 152 153 148 151 153 154 152 158 138 142 137 65 5 22 26 28 22 23 21 37 48 48 45 46 46 45 45 45 45 46 47 46 48 53
170 182 162 159 160 161 157 151 152 157 160 162 167 167 165 162 148 138 132 139 116 10 12 18 17 22 36 27 29 46 51 50 49 49 49 48 46 46 47 47 47 49 54
194 186 174 172 170 161 156 154 150 162 155 164 171 160 149 153 147 146 146 141 124 55 26 350 2 19 34 35 37 43 48 55 53 52 52 51 51 50 51 51 50 50 52
184 179 175 174 170 164 162 156 155 162 146 153 158 150 141 148 146 148 146 149 145 148 194 263 340 354 36 63 48 50 51 59 58 55 55 56 55 54 54 55 54 52 52
176 166 169 168 164 165 164 157 157 157 143 144 142 136 133 138 137 138 143 136 135 143 156 203 207 225 82 92 80 63 63 66 61 62 61 61 59 56 55 56 56 54 53
173 172 173 166 166 169 166 161 166 158 151 148 144 145 150 140 133 132 127 126 124 125 134 139 80 71 77 85 63 59 64 54 56 66 66 64 62 60 57 56 57 55 53
173 172 169 165 172 171 170 169 171 164 162 163 161 150 155 141 131 132 131 136 137 134 137 142 116 83 82 105 93 82 73 74 64 67 66 64 64 62 59 56 58 57 55
163 160 161 170 174 172 169 173 168 165 168 171 167 166 166 150 147 144 138 139 139 132 126 139 135 105 91 105 90 76 69 44 66 71 66 59 63 66 65 62 60 57 57
163 164 166 173 171 167 164 165 160 160 162 163 165 165 167 167 169 162 152 151 139 128 123 127 126 113 107 101 108 110 70 37 39 44 54 56 54 56 59 65 64 61 61
168 166 157 160 159 160 164 163 162 160 159 155 151 156 169 172 175 174 163 159 148 138 135 133 138 130 145 152 170 169 144 85 27 29 51 34 32 30 26 38 58 61 62
154 156 162 164 166 173 165 162 157 153 154 152 149 146 152 157 159 165 166 163 159 156 161 156 162 173 193 187 164 160 153 137 245 283 111 27 54 28 353 9 47 59 59
156 159 167 166 171 176 167 164 162 150 151 154 153 153 154 143 140 135 137 142 160 168 168 166 172 190 188 189 168 169 179 177 198 190 130 46 15 359 337 14 47 57 59
164 168 170 170 168 175 168 163 157 146 142 147 154 161 161 156 154 145 132 123 131 167 186 181 188 196 191 179 173 172 164 141 98 59 135 156 264 295 351 347 23 52 59
168 170 168 166 169 177 165 159 149 142 141 151 156 159 161 167 166 150 139 139 138 189 160 165 171 166 160 160 152 130 133 134 171 238 178 159 181 221 329 328 347 24 41
170 163 160 170 174 178 171 161 151 146 149 154 149 166 173 170 166 158 153 153 164 201 135 109 97 93 113 141 151 158 162 158 165 217 197 162 166 150 286 310 336 353 5